Location: The Stocker AstroScience Center
(25.7579°N, 80.3725°W)
Time: 09:06:29
(UTC-05:00)

ISS - All Passes

Search period start: 21 November 2017 00:00
Search period end: 01 December 2017 00:00
Orbit: 402 x 407 km, 51.6° (Epoch: 21 November)

Date Brightness Start Highest point End Pass type
(mag) Time Alt. Az. Time Alt. Az. Time Alt. Az.
21 Nov - 04:41:26 10° NNW 04:44:32 41° NE 04:47:37 10° ESE visible
21 Nov - 19:38:45 10° SSW 19:41:59 65° SE 19:45:13 10° NE visible
22 Nov - 03:49:45 10° N 03:52:11 19° NE 03:54:36 10° E visible
22 Nov - 05:26:02 10° WNW 05:28:33 21° SW 05:31:04 10° S visible
22 Nov - 18:47:03 10° S 18:49:48 25° SE 18:52:33 10° ENE visible
22 Nov - 20:24:02 10° W 20:26:14 17° NW 20:28:27 10° N visible
23 Nov - 04:33:12 10° NW 04:36:23 52° SW 04:39:32 10° SSE visible
23 Nov - 17:56:46 10° SE 17:57:41 11° SE 17:58:34 10° ESE visible
23 Nov - 19:30:49 10° WSW 19:33:51 34° NW 19:36:52 10° NNE visible
24 Nov - 03:40:55 10° NNW 03:44:08 57° NE 03:47:20 10° SE night (unlit)
24 Nov - 18:38:16 10° SW 18:41:32 89° NW 18:44:49 10° NE visible
25 Nov - 02:49:03 10° NNW 02:51:47 24° NE 02:54:30 10° E night (unlit)
25 Nov - 04:26:01 10° W 04:28:03 16° SW 04:30:05 10° SSW night (unlit)
25 Nov - 17:46:17 10° SSW 17:49:17 34° SE 17:52:18 10° ENE daylight
25 Nov - 19:24:08 10° WNW 19:25:49 13° NW 19:27:31 10° N visible
26 Nov - 01:57:51 10° NNE 01:59:19 12° NE 02:00:47 10° ENE night (unlit)
26 Nov - 03:32:50 10° WNW 03:35:52 37° SW 03:38:53 10° SSE night (unlit)
26 Nov - 16:55:12 10° SSE 16:57:06 15° SE 16:59:01 10° E daylight
26 Nov - 18:30:32 10° WSW 18:33:21 26° NW 18:36:11 10° NNE visible
27 Nov - 02:40:21 10° NW 02:43:36 81° NE 02:46:51 10° SE night (unlit)
27 Nov - 17:37:45 10° SW 17:40:59 63° NW 17:44:13 10° NE daylight
28 Nov - 01:48:17 10° NNW 01:51:15 32° NE 01:54:12 10° ESE night (unlit)
28 Nov - 03:26:13 10° WSW 03:27:26 12° SW 03:28:39 10° SSW night (unlit)
28 Nov - 16:45:31 10° SSW 16:48:40 47° SE 16:51:51 10° NE daylight
28 Nov - 18:24:33 10° NW 18:25:18 11° NW 18:26:04 10° NNW visible
29 Nov - 00:56:43 10° N 00:58:47 16° NE 01:00:50 10° E night (unlit)
29 Nov - 02:32:25 10° WNW 02:35:14 27° SW 02:38:02 10° S night (unlit)
29 Nov - 15:54:00 10° S 15:56:26 19° SE 15:58:52 10° ENE daylight
29 Nov - 17:30:13 10° W 17:32:46 21° NW 17:35:19 10° N daylight
30 Nov - 01:39:43 10° NW 01:42:58 72° SW 01:46:11 10° SE night (unlit)
30 Nov - 16:37:10 10° WSW 16:40:19 45° NW 16:43:29 10° NNE daylight
